<?xml version="1.0" encoding="UTF-8" standalone="no" ?>
<gpx xmlns="http://www.topografix.com/GPX/1/1" xmlns:xsi="http://www.w3.org/2001/XMLSchema-instance" xsi:schemaLocation="http://www.topografix.com/GPX/1/1 http://www.topografix.com/GPX/1/1/gpx.xsd" version="1.1" creator="VisuGPX - https://www.visugpx.com">
  <metadata>
    <name>Circuit 10 de la base VTT du trièves</name>
    <desc><![CDATA[Le tour du Ménil]]></desc>
  </metadata>
  <trk>
    <name><![CDATA[Le Tour du Menil]]></name>
    <trkseg>
      <trkpt lat="44.74597" lon="5.76797">
        <ele>935</ele>
        <time>2011-01-10T13:52:03Z</time>
      </trkpt>
      <trkpt lat="44.74644" lon="5.76743">
        <ele>924</ele>
        <time>2011-01-10T13:52:03Z</time>
      </trkpt>
      <trkpt lat="44.74821" lon="5.7683">
        <ele>935</ele>
        <time>2011-01-10T13:52:03Z</time>
      </trkpt>
      <trkpt lat="44.75056" lon="5.76673">
        <ele>954</ele>
        <time>2011-01-10T13:52:03Z</time>
      </trkpt>
      <trkpt lat="44.75128" lon="5.76646">
        <ele>955</ele>
        <time>2011-01-10T13:52:03Z</time>
      </trkpt>
      <trkpt lat="44.75403" lon="5.76789">
        <ele>985</ele>
        <time>2011-01-10T13:52:03Z</time>
      </trkpt>
      <trkpt lat="44.75582" lon="5.76977">
        <ele>1012</ele>
        <time>2011-01-10T13:52:03Z</time>
      </trkpt>
      <trkpt lat="44.75615" lon="5.77086">
        <ele>1021</ele>
        <time>2011-01-10T13:52:03Z</time>
      </trkpt>
      <trkpt lat="44.75699" lon="5.77117">
        <ele>1037</ele>
        <time>2011-01-10T13:52:03Z</time>
      </trkpt>
      <trkpt lat="44.75733" lon="5.77201">
        <ele>1059</ele>
        <time>2011-01-10T13:52:03Z</time>
      </trkpt>
      <trkpt lat="44.75761" lon="5.77285">
        <ele>1085</ele>
        <time>2011-01-10T13:52:03Z</time>
      </trkpt>
      <trkpt lat="44.75794" lon="5.77249">
        <ele>1085</ele>
        <time>2011-01-10T13:52:03Z</time>
      </trkpt>
      <trkpt lat="44.75879" lon="5.77286">
        <ele>1122</ele>
        <time>2011-01-10T13:52:03Z</time>
      </trkpt>
      <trkpt lat="44.76022" lon="5.77155">
        <ele>1099</ele>
        <time>2011-01-10T13:52:03Z</time>
      </trkpt>
      <trkpt lat="44.7611" lon="5.77237">
        <ele>1055</ele>
        <time>2011-01-10T13:52:03Z</time>
      </trkpt>
      <trkpt lat="44.76112" lon="5.77148">
        <ele>1061</ele>
        <time>2011-01-10T13:52:03Z</time>
      </trkpt>
      <trkpt lat="44.76264" lon="5.77037">
        <ele>1019</ele>
        <time>2011-01-10T13:52:03Z</time>
      </trkpt>
      <trkpt lat="44.76267" lon="5.77101">
        <ele>1011</ele>
        <time>2011-01-10T13:52:03Z</time>
      </trkpt>
      <trkpt lat="44.76351" lon="5.77156">
        <ele>980</ele>
        <time>2011-01-10T13:52:03Z</time>
      </trkpt>
      <trkpt lat="44.7636" lon="5.77296">
        <ele>988</ele>
        <time>2011-01-10T13:52:03Z</time>
      </trkpt>
      <trkpt lat="44.76452" lon="5.7722">
        <ele>994</ele>
        <time>2011-01-10T13:52:03Z</time>
      </trkpt>
      <trkpt lat="44.7647" lon="5.77081">
        <ele>976</ele>
        <time>2011-01-10T13:52:03Z</time>
      </trkpt>
      <trkpt lat="44.76572" lon="5.76974">
        <ele>937</ele>
        <time>2011-01-10T13:52:03Z</time>
      </trkpt>
      <trkpt lat="44.76721" lon="5.76958">
        <ele>922</ele>
        <time>2011-01-10T13:52:03Z</time>
      </trkpt>
      <trkpt lat="44.77214" lon="5.77026">
        <ele>887</ele>
        <time>2011-01-10T13:52:03Z</time>
      </trkpt>
      <trkpt lat="44.77379" lon="5.7708">
        <ele>877</ele>
        <time>2011-01-10T13:52:03Z</time>
      </trkpt>
      <trkpt lat="44.7779" lon="5.7689">
        <ele>856</ele>
        <time>2011-01-10T13:52:03Z</time>
      </trkpt>
      <trkpt lat="44.77897" lon="5.76801">
        <ele>852</ele>
        <time>2011-01-10T13:52:03Z</time>
      </trkpt>
      <trkpt lat="44.78042" lon="5.7676">
        <ele>849</ele>
        <time>2011-01-10T13:52:03Z</time>
      </trkpt>
      <trkpt lat="44.78137" lon="5.76747">
        <ele>843</ele>
        <time>2011-01-10T13:52:03Z</time>
      </trkpt>
      <trkpt lat="44.78149" lon="5.76627">
        <ele>841</ele>
        <time>2011-01-10T13:52:03Z</time>
      </trkpt>
      <trkpt lat="44.78321" lon="5.76467">
        <ele>823</ele>
        <time>2011-01-10T13:52:03Z</time>
      </trkpt>
      <trkpt lat="44.78422" lon="5.76252">
        <ele>817</ele>
        <time>2011-01-10T13:52:03Z</time>
      </trkpt>
      <trkpt lat="44.78533" lon="5.76151">
        <ele>817</ele>
        <time>2011-01-10T13:52:03Z</time>
      </trkpt>
      <trkpt lat="44.78664" lon="5.75988">
        <ele>806</ele>
        <time>2011-01-10T13:52:03Z</time>
      </trkpt>
      <trkpt lat="44.78728" lon="5.75821">
        <ele>811</ele>
        <time>2011-01-10T13:52:03Z</time>
      </trkpt>
      <trkpt lat="44.78808" lon="5.75573">
        <ele>819</ele>
        <time>2011-01-10T13:52:03Z</time>
      </trkpt>
      <trkpt lat="44.78649" lon="5.75456">
        <ele>827</ele>
        <time>2011-01-10T13:52:03Z</time>
      </trkpt>
      <trkpt lat="44.78546" lon="5.75292">
        <ele>834</ele>
        <time>2011-01-10T13:52:03Z</time>
      </trkpt>
      <trkpt lat="44.78506" lon="5.75277">
        <ele>837</ele>
        <time>2011-01-10T13:52:03Z</time>
      </trkpt>
      <trkpt lat="44.78414" lon="5.75335">
        <ele>845</ele>
        <time>2011-01-10T13:52:03Z</time>
      </trkpt>
      <trkpt lat="44.78302" lon="5.75321">
        <ele>846</ele>
        <time>2011-01-10T13:52:03Z</time>
      </trkpt>
      <trkpt lat="44.78237" lon="5.75235">
        <ele>845</ele>
        <time>2011-01-10T13:52:03Z</time>
      </trkpt>
      <trkpt lat="44.78045" lon="5.75186">
        <ele>863</ele>
        <time>2011-01-10T13:52:03Z</time>
      </trkpt>
      <trkpt lat="44.78009" lon="5.75051">
        <ele>864</ele>
        <time>2011-01-10T13:52:03Z</time>
      </trkpt>
      <trkpt lat="44.77907" lon="5.75">
        <ele>872</ele>
        <time>2011-01-10T13:52:03Z</time>
      </trkpt>
      <trkpt lat="44.77849" lon="5.74826">
        <ele>879</ele>
        <time>2011-01-10T13:52:03Z</time>
      </trkpt>
      <trkpt lat="44.77782" lon="5.74828">
        <ele>887</ele>
        <time>2011-01-10T13:52:03Z</time>
      </trkpt>
      <trkpt lat="44.77762" lon="5.74726">
        <ele>885</ele>
        <time>2011-01-10T13:52:03Z</time>
      </trkpt>
      <trkpt lat="44.77999" lon="5.74633">
        <ele>875</ele>
        <time>2011-01-10T13:52:03Z</time>
      </trkpt>
      <trkpt lat="44.7806" lon="5.74573">
        <ele>870</ele>
        <time>2011-01-10T13:52:03Z</time>
      </trkpt>
      <trkpt lat="44.78096" lon="5.74417">
        <ele>865</ele>
        <time>2011-01-10T13:52:03Z</time>
      </trkpt>
      <trkpt lat="44.78199" lon="5.74297">
        <ele>856</ele>
        <time>2011-01-10T13:52:03Z</time>
      </trkpt>
      <trkpt lat="44.78251" lon="5.74054">
        <ele>850</ele>
        <time>2011-01-10T13:52:03Z</time>
      </trkpt>
      <trkpt lat="44.78127" lon="5.74147">
        <ele>852</ele>
        <time>2011-01-10T13:52:03Z</time>
      </trkpt>
      <trkpt lat="44.77912" lon="5.74115">
        <ele>829</ele>
        <time>2011-01-10T13:52:03Z</time>
      </trkpt>
      <trkpt lat="44.77743" lon="5.73884">
        <ele>837</ele>
        <time>2011-01-10T13:52:03Z</time>
      </trkpt>
      <trkpt lat="44.77741" lon="5.73827">
        <ele>839</ele>
        <time>2011-01-10T13:52:03Z</time>
      </trkpt>
      <trkpt lat="44.77541" lon="5.73429">
        <ele>862</ele>
        <time>2011-01-10T13:52:03Z</time>
      </trkpt>
      <trkpt lat="44.77538" lon="5.73385">
        <ele>863</ele>
        <time>2011-01-10T13:52:03Z</time>
      </trkpt>
      <trkpt lat="44.77564" lon="5.73266">
        <ele>862</ele>
        <time>2011-01-10T13:52:03Z</time>
      </trkpt>
      <trkpt lat="44.77443" lon="5.72955">
        <ele>890</ele>
        <time>2011-01-10T13:52:03Z</time>
      </trkpt>
      <trkpt lat="44.77467" lon="5.7278">
        <ele>890</ele>
        <time>2011-01-10T13:52:03Z</time>
      </trkpt>
      <trkpt lat="44.7745" lon="5.72602">
        <ele>903</ele>
        <time>2011-01-10T13:52:03Z</time>
      </trkpt>
      <trkpt lat="44.77422" lon="5.72486">
        <ele>905</ele>
        <time>2011-01-10T13:52:03Z</time>
      </trkpt>
      <trkpt lat="44.77489" lon="5.72206">
        <ele>885</ele>
        <time>2011-01-10T13:52:03Z</time>
      </trkpt>
      <trkpt lat="44.77567" lon="5.72008">
        <ele>874</ele>
        <time>2011-01-10T13:52:03Z</time>
      </trkpt>
      <trkpt lat="44.77578" lon="5.718">
        <ele>878</ele>
        <time>2011-01-10T13:52:03Z</time>
      </trkpt>
      <trkpt lat="44.77582" lon="5.71668">
        <ele>881</ele>
        <time>2011-01-10T13:52:03Z</time>
      </trkpt>
      <trkpt lat="44.77511" lon="5.71777">
        <ele>881</ele>
        <time>2011-01-10T13:52:03Z</time>
      </trkpt>
      <trkpt lat="44.77353" lon="5.71793">
        <ele>853</ele>
        <time>2011-01-10T13:52:03Z</time>
      </trkpt>
      <trkpt lat="44.77261" lon="5.71699">
        <ele>822</ele>
        <time>2011-01-10T13:52:03Z</time>
      </trkpt>
      <trkpt lat="44.77244" lon="5.71521">
        <ele>795</ele>
        <time>2011-01-10T13:52:03Z</time>
      </trkpt>
      <trkpt lat="44.77205" lon="5.71474">
        <ele>790</ele>
        <time>2011-01-10T13:52:03Z</time>
      </trkpt>
      <trkpt lat="44.77191" lon="5.71789">
        <ele>815</ele>
        <time>2011-01-10T13:52:03Z</time>
      </trkpt>
      <trkpt lat="44.77269" lon="5.71895">
        <ele>834</ele>
        <time>2011-01-10T13:52:03Z</time>
      </trkpt>
      <trkpt lat="44.77191" lon="5.72238">
        <ele>841</ele>
        <time>2011-01-10T13:52:03Z</time>
      </trkpt>
      <trkpt lat="44.77115" lon="5.72215">
        <ele>819</ele>
        <time>2011-01-10T13:52:03Z</time>
      </trkpt>
      <trkpt lat="44.77067" lon="5.72313">
        <ele>816</ele>
        <time>2011-01-10T13:52:03Z</time>
      </trkpt>
      <trkpt lat="44.76946" lon="5.72312">
        <ele>810</ele>
        <time>2011-01-10T13:52:03Z</time>
      </trkpt>
      <trkpt lat="44.7679" lon="5.72385">
        <ele>807</ele>
        <time>2011-01-10T13:52:03Z</time>
      </trkpt>
      <trkpt lat="44.76688" lon="5.72479">
        <ele>799</ele>
        <time>2011-01-10T13:52:03Z</time>
      </trkpt>
      <trkpt lat="44.76485" lon="5.72518">
        <ele>768</ele>
        <time>2011-01-10T13:52:03Z</time>
      </trkpt>
      <trkpt lat="44.76342" lon="5.72768">
        <ele>786</ele>
        <time>2011-01-10T13:52:03Z</time>
      </trkpt>
      <trkpt lat="44.7613" lon="5.73059">
        <ele>799</ele>
        <time>2011-01-10T13:52:03Z</time>
      </trkpt>
      <trkpt lat="44.76031" lon="5.73363">
        <ele>830</ele>
        <time>2011-01-10T13:52:03Z</time>
      </trkpt>
      <trkpt lat="44.75952" lon="5.73592">
        <ele>827</ele>
        <time>2011-01-10T13:52:03Z</time>
      </trkpt>
      <trkpt lat="44.75985" lon="5.73682">
        <ele>834</ele>
        <time>2011-01-10T13:52:03Z</time>
      </trkpt>
      <trkpt lat="44.75922" lon="5.73678">
        <ele>820</ele>
        <time>2011-01-10T13:52:03Z</time>
      </trkpt>
      <trkpt lat="44.75813" lon="5.73716">
        <ele>803</ele>
        <time>2011-01-10T13:52:03Z</time>
      </trkpt>
      <trkpt lat="44.75657" lon="5.73795">
        <ele>803</ele>
        <time>2011-01-10T13:52:03Z</time>
      </trkpt>
      <trkpt lat="44.755" lon="5.7395">
        <ele>814</ele>
        <time>2011-01-10T13:52:03Z</time>
      </trkpt>
      <trkpt lat="44.75396" lon="5.74089">
        <ele>820</ele>
        <time>2011-01-10T13:52:03Z</time>
      </trkpt>
      <trkpt lat="44.75243" lon="5.74244">
        <ele>825</ele>
        <time>2011-01-10T13:52:03Z</time>
      </trkpt>
      <trkpt lat="44.75105" lon="5.7447">
        <ele>849</ele>
        <time>2011-01-10T13:52:03Z</time>
      </trkpt>
      <trkpt lat="44.74941" lon="5.74706">
        <ele>862</ele>
        <time>2011-01-10T13:52:03Z</time>
      </trkpt>
      <trkpt lat="44.74755" lon="5.7503">
        <ele>869</ele>
        <time>2011-01-10T13:52:03Z</time>
      </trkpt>
      <trkpt lat="44.74635" lon="5.75269">
        <ele>874</ele>
        <time>2011-01-10T13:52:03Z</time>
      </trkpt>
      <trkpt lat="44.74568" lon="5.75404">
        <ele>877</ele>
        <time>2011-01-10T13:52:03Z</time>
      </trkpt>
      <trkpt lat="44.74461" lon="5.75379">
        <ele>866</ele>
        <time>2011-01-10T13:52:03Z</time>
      </trkpt>
      <trkpt lat="44.74387" lon="5.75425">
        <ele>864</ele>
        <time>2011-01-10T13:52:03Z</time>
      </trkpt>
      <trkpt lat="44.74368" lon="5.75613">
        <ele>875</ele>
        <time>2011-01-10T13:52:03Z</time>
      </trkpt>
      <trkpt lat="44.74448" lon="5.75795">
        <ele>899</ele>
        <time>2011-01-10T13:52:03Z</time>
      </trkpt>
      <trkpt lat="44.74437" lon="5.7587">
        <ele>896</ele>
        <time>2011-01-10T13:52:03Z</time>
      </trkpt>
      <trkpt lat="44.74498" lon="5.7607">
        <ele>896</ele>
        <time>2011-01-10T13:52:03Z</time>
      </trkpt>
      <trkpt lat="44.74529" lon="5.76224">
        <ele>899</ele>
        <time>2011-01-10T13:52:03Z</time>
      </trkpt>
      <trkpt lat="44.74555" lon="5.76282">
        <ele>900</ele>
        <time>2011-01-10T13:52:03Z</time>
      </trkpt>
      <trkpt lat="44.74504" lon="5.76602">
        <ele>909</ele>
        <time>2011-01-10T13:52:03Z</time>
      </trkpt>
      <trkpt lat="44.74488" lon="5.76835">
        <ele>926</ele>
        <time>2011-01-10T13:52:03Z</time>
      </trkpt>
      <trkpt lat="44.74592" lon="5.76816">
        <ele>937</ele>
        <time>2011-01-10T13:52:03Z</time>
      </trkpt>
    </trkseg>
  </trk>
</gpx>